Regional Weather Roundup
Issued by NWS

Home | Current Version | Previous Version | Text Only | Print | Product List | Glossary Off
Versions: 1 2 3 4 5 6 7 8 9 10 11 12 13 14 15 16 17 18 19 20 21 22 23 24 25 26 27

000
ASUS45 KCYS 160610
RWRWY

WYOMING REGIONAL WEATHER ROUNDUP
NATIONAL WEATHER SERVICE CHEYENNE WY
1200 AM MDT WED APR 16 2014

NOTE:  "FAIR" INDICATES FEW OR NO CLOUDS BELOW 12,000 FEET
WITH NO SIGNIFICANT WEATHER AND/OR OBSTRUCTIONS TO VISIBILITY.

WYZ001-160700-
YELLOWSTONE NATIONAL PARK

CITY           SKY/WX    TMP DP  RH WIND       PRES   REMARKS
LK YELLOWSTONE   N/A     23  18  81 W3        29.88R
6HR MIN TEMP:  22; 6HR MAX TEMP:  32; 6HR PCP:  0.08;

W YELLOWSTONE  NOT AVBL

$$
WYZ002>013-054>058-071-098>099-160700-
NORTHERN WYOMING

CITY           SKY/WX    TMP DP  RH WIND       PRES   REMARKS
JACKSON        PTCLDY    32  19  59 NW7       29.88R WCI  26
CODY           MOCLDY    34  27  75 NE8       29.80R WCI  27
GREYBULL       PTCLDY    40  31  70 N24G30    29.77R WCI  29
6HR MIN TEMP:  40; 6HR MAX TEMP:  53; 6HR PCP:  0.02;

WORLAND        MOCLDY    38  31  76 W5        29.78R WCI  34
6HR MIN TEMP:  38; 6HR MAX TEMP:  56; 6HR PCP:  0.03;

SHERIDAN       CLOUDY    38  33  82 NW23G31   29.75R WCI  27
6HR MIN TEMP:  38; 6HR MAX TEMP:  50; 6HR PCP:  0.02;

BUFFALO        CLOUDY    36  30  79 N28G43    29.71S WCI  23
6HR MIN TEMP:  33; 6HR MAX TEMP:  48; 6HR PCP:  0.02;

GILLETTE       MIX PCPN  36  34  93 NW17G24   29.69R WCI  25
6HR MIN TEMP:  34; 6HR MAX TEMP:  52; 6HR PCP:  0.17;

HULETT         LGT RAIN  37  36  93 NW3       29.67
NEWCASTLE      MOCLDY    41  36  81 NW10      29.62

$$
WYZ014>020-022>026-101>103-160700-
CENTRAL WYOMING

CITY           SKY/WX    TMP DP  RH WIND       PRES   REMARKS
BIG PINEY      MOCLDY    29  26  89 N10       29.88R WCI  20
6HR MIN TEMP:  29; 6HR MAX TEMP:  47; 6HR PCP: TRACE;

PINEDALE       MOCLDY    28  28 100 NW9       29.87S WCI  20
DUBOIS         LGT SNOW  28  23  80 W21       29.82R WCI  15
LANDER         MOCLDY    35  31  85 SW7       29.82R WCI  29
6HR MIN TEMP:  34; 6HR MAX TEMP:  53;

RIVERTON       CLOUDY    37  27  67 N15       29.82R WCI  28
6HR MIN TEMP:  36; 6HR MAX TEMP:  55; 6HR PCP: TRACE;

CASPER         LGT SNOW  32  32 100 NW7       29.75R FOG     WCI  26
6HR MIN TEMP:  32; 6HR MAX TEMP:  56; 6HR PCP:  0.08;

DOUGLAS        LGT RAIN  40  35  83 NW13      29.67R WCI  32
6HR MIN TEMP:  40; 6HR MAX TEMP:  57; 6HR PCP: TRACE;


$$
WYZ021-027>030-104>119-160700-
SOUTHERN WYOMING

CITY           SKY/WX    TMP DP  RH WIND       PRES   REMARKS
EVANSTON       CLOUDY    36   6  28 NW12      29.96R WCI  28
6HR MIN TEMP:  36; 6HR MAX TEMP:  52;

FORT BRIDGER   FAIR      39  12  33 W24G37    29.92S WCI  28
ROCK SPRINGS   CLOUDY    39  14  36 W22G31    29.86R WCI  29
6HR MIN TEMP:  39; 6HR MAX TEMP:  55;

DIXON          CLOUDY    44  24  45 W21G35    29.85R
RAWLINS        PTCLDY    36  24  62 NW15      29.79R WCI  27
6HR MIN TEMP:  36; 6HR MAX TEMP:  53;

SARATOGA       FAIR      37  23  56 W23       29.79R WCI  26
LARAMIE        HVY SNOW  32  31  96 NW16G23   29.78R VSB 1/4 WCI  21
6HR MIN TEMP:  33; 6HR MAX TEMP:  49; 6HR PCP: TRACE;

CHEYENNE       MOCLDY    42  31  64 NW20G31   29.71R
6HR MIN TEMP:  42; 6HR MAX TEMP:  53;

TORRINGTON     CLOUDY    53  29  39 SW22G38   29.58F
6HR MIN TEMP:  50; 6HR MAX TEMP:  60;

PINE BLUFFS    MOCLDY    45  28  53 NW22      29.69R

$$



USA.gov is the U.S. government's official web portal to all federal, state and local government web resources and services.